sat.trackr.live / text

‹ back to catalog

STARLINK-5640

NORAD 55436 · 2023-014AX

PAYLOAD ACTIVE UNKNOWN

§ Identity

Operator
Country
US
Launch date
2023-01-31
Launch site
AFWTR
Launch vehicle
Mass (kg)
RCS (m²)

Purposes: comms

External: N2YO · Heavens-Above · Gunter

§ Orbital elements

Epoch: 2026-05-24T18:29:00.453696Z

Period
96.11 min
Inclination
69.9990°
Eccentricity
0.0003145
Mean motion
14.98344474 rev/d
Perigee alt
569.8 km
Apogee alt
574.2 km
Semi-major
6,950.1 km
B*
1.3342e-4
RAAN
272.6719°
Arg perigee
270.2095°
Mean anomaly
89.8704°
Rev number
18,246

§ Raw data

STARLINK-56401 55436U 23014AX  26144.77014414  .00001500  00000+0  13342-3 0  99992 55436  69.9990 272.6719 0003145 270.2095  89.8704 14.98344474182464

JSON: /api/v1/satellites/55436 · /tle

For live sub-satellite position, see the globe view (requires WebGL).

§ Visibility from observer

Set your observer location to see the next 7 days of passes ≥ 10°. The values pass through the URL so the page stays shareable.

No JS? Fill the form by hand. The geolocation button needs JavaScript.